Showing default

SUPERVIEW NEO-1 02, 52322

Orbit data source: Space-Track

SUPERVIEW NEO-1 02, 52322 is a payload satellite owned by Siwei (CN) in SSO that was launched on Fri, 29 Apr 2022 UTC via a CHANG ZHENG 2C launch vehicle from the Jiuquan Satellite Launch Center, China (JSC). Payload-class satellites include a variety of spacecraft equipped with specific instruments for various scientific and technological missions. These include communications satellites like Starlink; space stations such as the ISS; scientific satellites like the Hubble; Earth observation satellites from companies like Planet Labs, Umbra, and HawkEye 360; GPS; miniature CubeSats for education and research; and military/defense satellites.

Loading next visibility...
Identifier
52322, 2022-043C
Orbit
SSO
Country
Flag of CNCN / PRC
Related business
Manufacturer
DFH
Mission
Operational Commercial Imaging
Bus & Motor
SIWEI, Unknown motor
Mass
540 kg wet, ~500 kg dry
Launch date (UTC)
2022-04-29 (4 years ago)
Launch vehicle
CHANG ZHENG 2C
Launch site
Jiuquan Satellite Launch Center, China (JSC)
Object type
Payload
Rocket body
Debris
Shape & HBR
Box, 0.3 m
Radar Cross Section
0.375 m², Large (>1 m²)

Expand to show TLE details & history
Last TLE update: 16 hours ago

TLE from 16 hours ago
0 SUPERVIEW NEO-1 02
1 52322U 22043C   25348.96210333  .00004865  00000-0  26882-3 0  9996
2 52322  97.3622  62.7507 0000556 205.5183 154.6022 15.14354687201672
Epoch: 2025-12-14T23:05Z
TLE epoch observation values (Epoch: 2025-12-14T23:05:25.727Z)
Latitude
-0.00002°
Longitude
-7.47399°
Altitude
526.369 km
Speed
7.6 km/s
True Right ascension
04h 11m 00s
True Declination
0° 00' 00"
Sunlit
Object was in full shadow at epoch
Visualization orbit readout
Latitude
Unknown
Longitude
Unknown
Altitude
Unknown
Speed
Unknown
Apparent Right ascension
Unknown
Apparent Declination
Unknown
Sunlit
N/A
Visualization observer readout
Local Sidereal Time
13:24:44
Azimuth
Unknown
Elevation
Unknown
Doppler factor
Unknown
Orbital elements
Apogee altitude
520.293 km
Perigee altitude
519.526 km
Semi-major axis
6,898.047 km
Eccentricity
0.00006
Inclination
97.3622°
RAAN
62.7507°
Arg. of periapsis
205.5183°
True anomaly
154.60493°
Mean anomaly
154.6022°
Eccentric anomaly
154.60357°
Mean motion
3.78838 °/min
Orbital period
95.03 mins
BSTAR
0.00026882
Loading maneuver chart data...
Computing Atmospheric mass density...
Loading historical data...
Loading historical data...
Loading historical data...
Loading historical data...
Loading historical data...
Loading historical data...
Loading historical data...

Documentation

Showing up to 5 results
|